Temp
60 60 61 61 61 61 62 61 61 61 61 61 61 61 61 61 62 56 49 57 61 66 63 56 56 55 53 51 53 52 41 37 42 49 52 55 53 59 59 58 58 60 59 62 64
60 60 60 60 61 61 61 61 61 61 61 61 61 61 61 61 53 50 61 65 66 65 54 51 51 52 47 48 50 46 39 42 51 51 51 55 53 53 55 55 55 55 59 62 64
59 59 59 60 60 60 60 60 60 60 60 61 61 61 61 57 48 48 64 65 65 62 56 53 52 52 46 47 47 45 40 46 51 53 54 56 56 55 51 51 52 54 55 58 61
59 59 59 59 60 60 60 60 60 60 60 60 61 61 60 52 37 53 64 64 63 58 55 52 50 44 42 41 47 41 47 47 50 52 53 52 57 55 53 53 59 57 58 58 58
58 58 58 59 59 60 60 60 60 60 60 60 61 61 54 44 45 59 62 60 58 55 50 47 44 42 39 41 44 42 45 48 50 51 51 55 53 50 53 59 60 60 59 57 58
58 58 58 58 59 59 59 60 60 59 60 60 61 60 49 38 57 58 56 56 54 52 49 48 44 45 41 41 40 43 44 45 47 49 50 49 49 52 53 59 60 58 55 54 57
57 57 57 58 58 59 59 59 59 59 59 60 61 55 48 44 56 55 56 53 54 52 48 50 48 45 43 40 45 44 39 43 45 47 48 50 45 45 54 57 57 56 52 56 58
57 57 57 57 58 58 59 59 59 59 60 61 60 50 42 57 55 56 56 54 55 55 52 52 50 46 43 45 43 39 37 33 43 45 47 46 36 49 54 52 53 55 49 54 57
56 56 57 57 57 58 59 59 59 60 60 60 51 47 41 59 52 55 53 50 51 52 51 57 49 42 43 35 32 33 29 32 38 44 43 42 37 49 51 50 50 53 55 55 56
56 56 57 57 57 58 58 59 59 57 56 56 54 43 48 45 51 53 54 53 48 48 47 45 40 35 34 32 23 29 28 31 31 40 41 37 36 44 48 47 46 50 52 54 56
56 56 57 57 58 58 52 47 43 43 46 41 42 42 46 51 52 52 53 50 48 44 36 40 34 30 32 35 34 32 29 27 32 41 37 35 37 41 46 44 43 48 52 53 54
56 56 56 57 57 57 48 41 40 44 39 46 46 46 49 49 43 48 53 43 41 33 38 34 31 37 40 38 35 33 30 28 34 39 38 36 36 41 43 42 44 44 44 46 48
56 56 56 57 57 50 44 43 49 46 37 42 45 44 46 48 42 44 47 43 37 34 33 31 37 43 40 36 35 33 30 30 30 35 35 34 33 37 41 43 44 44 44 45 46
56 56 56 56 50 45 42 49 49 47 23 34 41 45 47 46 41 49 48 42 38 33 34 33 41 39 37 36 35 30 36 34 33 29 24 32 21 33 37 38 39 39 40 41 42
55 55 56 54 44 42 45 48 47 43 18 37 39 51 47 42 42 44 47 43 34 35 34 32 35 34 33 35 37 33 38 34 33 31 26 29 20 29 33 31 34 37 38 39 41
55 55 55 48 44 44 47 45 43 27 19 26 37 37 38 41 42 44 43 44 41 34 34 33 39 37 36 38 37 39 35 32 30 26 12 28 23 24 27 31 34 36 37 39 40
55 55 51 49 41 46 45 40 26 22 29 27 30 35 34 34 38 38 36 34 28 19 19 30 33 38 39 34 36 33 24 8 12 11 12 28 24 26 32 33 34 34 36 38 40
55 52 49 47 45 45 40 31 22 14 17 33 33 34 30 34 35 36 32 29 33 24 21 20 20 32 38 34 32 32 31 22 6 15 16 29 23 28 35 36 37 37 39 39 39
53 42 42 43 46 42 35 19 23 21 30 32 31 23 24 32 33 32 29 28 30 28 17 23 17 34 36 36 34 30 26 34 23 20 18 23 25 32 35 34 35 37 37 36 38
41 40 40 44 44 38 26 28 22 33 34 33 21 26 17 28 28 28 29 33 33 36 33 24 20 26 33 35 35 32 37 21 20 10 9 16 20 26 29 31 34 33 34 36 36
41 34 42 44 42 33 22 19 28 36 37 28 17 25 29 26 27 26 29 33 36 34 34 33 28 23 28 30 31 30 23 32 30 26 14 14 18 32 30 32 32 33 35 35 35
38 28 43 43 28 17 19 27 37 34 36 33 31 30 30 30 28 28 29 31 37 36 30 35 29 20 19 30 38 33 29 30 19 18 23 21 19 34 33 33 34 34 35 36 36
33 33 43 43 25 19 24 32 34 34 34 33 32 33 33 29 22 29 31 36 37 35 32 33 21 13 18 28 30 28 32 35 30 27 17 16 17 35 34 34 34 33 33 34 35
37 31 35 36 33 30 26 28 30 36 34 35 34 35 32 26 31 27 31 35 36 36 41 36 25 23 17 22 26 25 29 32 30 15 17 19 18 24 31 32 33 33 33 29 31
36 33 34 29 30 31 33 32 31 28 34 36 33 33 32 19 20 23 31 32 35 39 34 32 17 19 25 26 28 27 28 31 27 30 21 18 17 25 28 32 32 31 31 30 32
33 33 34 30 33 33 34 30 32 32 33 32 31 33 32 29 30 23 30 31 30 32 30 31 18 19 22 28 31 28 32 32 30 28 28 23 22 31 32 35 30 28 29 29 29
39 40 39 34 32 31 31 34 33 35 35 36 35 32 31 33 34 34 33 33 33 31 29 28 20 13 16 15 16 16 23 30 29 27 32 25 27 30 31 33 30 30 30 27 30
MSLP
1024.08 1023.87 1023.52 1023.14 1022.98 1022.78 1022.37 1022.06 1021.95 1021.71 1021.44 1021.36 1021.04 1020.86 1020.80 1020.30 1019.56 1019.47 1019.88 1020.40 1019.60 1018.83 1018.02 1017.49 1017.01 1017.02 1016.78 1016.88 1016.79 1016.93 1017.71 1017.47 1016.39 1015.57 1014.76 1014.20 1013.54 1012.82 1012.43 1012.34 1012.53 1012.82 1013.26 1013.17 1013.85
1024.33 1024.03 1023.67 1023.43 1023.20 1023.01 1022.69 1022.38 1022.18 1021.79 1021.63 1021.30 1021.06 1020.91 1020.66 1020.41 1019.71 1020.25 1020.68 1020.01 1019.41 1018.91 1018.54 1018.26 1017.94 1017.59 1017.56 1017.29 1017.11 1017.25 1017.75 1017.26 1016.18 1015.61 1015.13 1014.54 1014.21 1013.55 1013.20 1013.13 1013.39 1013.48 1013.84 1013.88 1014.21
1024.39 1024.16 1023.87 1023.63 1023.42 1023.15 1022.79 1022.57 1022.35 1022.07 1021.67 1021.31 1021.11 1020.88 1020.55 1020.32 1020.02 1021.10 1020.62 1020.07 1019.59 1019.16 1018.80 1018.55 1018.28 1018.19 1018.18 1017.94 1017.83 1017.65 1017.70 1017.13 1016.71 1016.11 1015.49 1014.76 1014.29 1014.06 1013.79 1013.91 1014.05 1014.21 1014.40 1014.50 1014.59
1024.41 1024.29 1023.98 1023.79 1023.46 1023.20 1022.90 1022.61 1022.41 1022.15 1021.70 1021.34 1021.09 1020.71 1020.39 1020.55 1021.75 1021.46 1020.86 1020.41 1019.84 1019.35 1018.99 1018.92 1018.93 1019.24 1019.35 1019.22 1018.75 1018.42 1017.82 1017.71 1017.28 1016.56 1015.81 1015.42 1014.79 1014.59 1014.52 1014.39 1014.34 1014.02 1014.48 1014.70 1015.18
1024.55 1024.39 1024.20 1023.98 1023.56 1023.24 1022.90 1022.60 1022.34 1022.13 1021.68 1021.27 1021.11 1020.67 1020.50 1021.33 1022.13 1021.31 1021.01 1020.52 1020.11 1019.82 1019.83 1019.84 1020.09 1020.03 1020.18 1020.07 1019.39 1019.19 1018.72 1018.05 1017.58 1016.86 1016.26 1015.67 1015.31 1015.14 1014.91 1014.76 1014.47 1014.48 1014.96 1015.25 1015.65
1024.61 1024.29 1024.26 1024.11 1023.70 1023.20 1022.83 1022.57 1022.39 1022.17 1021.81 1021.29 1020.97 1020.84 1020.69 1021.70 1021.88 1021.52 1021.23 1020.87 1020.79 1020.58 1020.47 1020.23 1020.65 1020.51 1020.48 1020.27 1019.91 1019.84 1019.29 1018.54 1017.73 1017.16 1016.68 1016.37 1015.95 1015.63 1015.48 1015.27 1015.17 1015.29 1015.73 1016.05 1016.08
1024.65 1024.37 1024.30 1024.03 1023.66 1023.16 1022.89 1022.58 1022.30 1022.05 1021.80 1021.51 1021.20 1021.43 1021.64 1022.30 1021.73 1021.63 1021.26 1021.05 1020.94 1020.94 1020.77 1020.59 1020.56 1020.52 1020.64 1020.30 1020.10 1019.95 1019.58 1018.82 1018.25 1017.54 1017.06 1016.61 1016.62 1016.45 1016.10 1015.89 1016.03 1016.17 1016.39 1016.57 1016.47
1024.69 1024.51 1024.32 1024.03 1023.66 1023.19 1022.79 1022.57 1022.23 1022.02 1021.75 1021.46 1021.59 1021.71 1022.33 1021.94 1021.82 1021.62 1021.25 1020.79 1020.62 1020.67 1020.61 1020.41 1020.32 1020.57 1020.65 1020.54 1020.22 1020.39 1020.11 1020.08 1019.45 1018.50 1018.10 1017.64 1017.64 1017.09 1017.08 1016.79 1016.68 1016.63 1016.88 1016.84 1016.65
1024.73 1024.55 1024.30 1024.00 1023.58 1023.17 1022.72 1022.28 1022.12 1022.10 1021.83 1021.52 1021.57 1021.89 1022.97 1022.25 1022.21 1021.94 1021.77 1021.54 1020.95 1020.88 1020.54 1020.39 1020.45 1021.03 1020.80 1021.23 1021.28 1021.50 1021.38 1021.11 1020.24 1019.80 1019.47 1018.93 1018.58 1017.59 1017.56 1017.57 1017.49 1017.28 1017.06 1016.96 1016.97
1024.78 1024.58 1024.32 1023.99 1023.63 1023.16 1022.48 1022.35 1022.06 1021.81 1022.02 1022.00 1022.16 1022.37 1022.97 1023.48 1022.96 1022.42 1021.88 1021.72 1021.51 1021.50 1021.22 1021.12 1021.43 1021.98 1022.03 1021.87 1022.78 1022.78 1022.42 1022.08 1021.63 1021.01 1020.15 1019.77 1019.52 1018.65 1017.95 1017.81 1017.87 1017.66 1017.63 1017.23 1016.96
1024.83 1024.64 1024.39 1024.07 1023.75 1023.27 1022.89 1022.69 1023.11 1022.84 1023.11 1024.34 1024.27 1023.81 1023.42 1023.12 1022.76 1022.67 1022.15 1022.19 1021.83 1022.05 1022.68 1022.61 1022.71 1023.21 1023.05 1022.72 1022.83 1023.16 1023.01 1022.87 1022.24 1021.73 1021.20 1020.68 1020.32 1019.67 1019.02 1018.37 1018.26 1018.36 1018.29 1018.02 1017.65
1024.99 1024.76 1024.48 1024.14 1023.90 1023.64 1023.73 1024.55 1024.76 1024.76 1024.63 1024.47 1024.32 1024.06 1023.70 1023.57 1023.46 1023.17 1022.68 1023.23 1023.44 1023.55 1023.41 1023.74 1023.62 1023.31 1022.99 1022.79 1022.76 1023.00 1023.19 1023.23 1022.63 1021.98 1021.69 1021.48 1021.01 1020.67 1020.38 1020.39 1020.18 1020.05 1019.98 1019.75 1019.04
1025.14 1024.91 1024.68 1024.34 1023.94 1024.25 1025.04 1025.55 1025.15 1024.85 1024.83 1024.90 1024.41 1024.27 1024.03 1023.81 1023.82 1023.85 1023.80 1024.09 1024.68 1024.50 1024.67 1024.50 1024.43 1023.39 1023.13 1023.13 1023.10 1023.46 1023.70 1023.75 1023.68 1022.79 1022.23 1022.08 1021.76 1021.47 1021.17 1021.25 1021.24 1021.38 1021.67 1021.19 1020.89
1025.22 1024.89 1024.69 1024.40 1024.55 1025.11 1025.58 1025.72 1025.61 1025.46 1025.85 1025.93 1024.75 1024.23 1024.07 1023.98 1023.97 1024.00 1024.18 1024.77 1025.13 1025.41 1025.31 1025.30 1024.62 1024.02 1023.55 1023.41 1023.58 1023.69 1023.75 1023.95 1023.89 1023.82 1023.61 1023.21 1023.10 1022.25 1022.19 1022.16 1022.39 1022.84 1022.73 1022.54 1022.03
1024.99 1024.91 1024.60 1024.47 1025.09 1025.33 1025.64 1025.52 1025.28 1025.82 1027.07 1026.83 1025.30 1024.33 1024.24 1024.35 1024.42 1024.23 1024.42 1024.69 1025.73 1026.11 1026.11 1026.14 1025.45 1024.90 1024.27 1024.08 1023.78 1024.03 1023.90 1024.24 1024.29 1024.43 1024.74 1024.37 1024.40 1023.47 1023.16 1023.04 1023.47 1023.68 1023.79 1023.64 1023.28
1025.13 1024.84 1024.86 1025.12 1025.62 1025.75 1025.73 1025.43 1025.69 1026.81 1027.50 1027.04 1026.20 1025.46 1025.25 1025.19 1024.92 1024.74 1024.93 1025.30 1025.82 1026.37 1026.50 1026.54 1025.93 1025.52 1024.92 1024.40 1024.23 1024.10 1024.27 1024.86 1025.31 1025.64 1025.76 1025.36 1025.25 1024.87 1025.08 1025.46 1024.74 1024.17 1024.11 1023.88 1023.48
1025.45 1025.09 1024.89 1025.30 1026.26 1026.12 1026.03 1025.99 1027.25 1027.81 1028.77 1027.86 1027.04 1026.61 1026.56 1026.33 1025.88 1025.81 1026.07 1026.68 1027.45 1027.65 1028.40 1027.49 1026.69 1025.79 1025.34 1024.94 1024.67 1024.72 1025.40 1026.42 1027.03 1027.16 1027.05 1025.99 1025.74 1025.82 1025.79 1025.93 1025.86 1025.27 1024.60 1024.27 1023.81
1025.59 1025.72 1025.66 1025.86 1025.99 1026.19 1026.87 1027.39 1028.05 1028.76 1028.38 1028.06 1027.83 1027.41 1027.45 1027.29 1026.71 1026.58 1026.79 1027.72 1028.15 1028.76 1029.33 1029.06 1027.64 1026.96 1026.26 1025.96 1025.78 1025.73 1026.20 1027.01 1028.11 1028.43 1027.53 1026.27 1026.17 1025.91 1025.93 1026.06 1026.11 1026.04 1025.54 1024.66 1024.12
1025.53 1026.35 1026.28 1026.19 1025.91 1026.33 1027.42 1028.88 1028.63 1028.26 1027.84 1027.95 1028.21 1028.44 1028.58 1027.87 1027.85 1027.28 1027.41 1028.06 1028.33 1028.69 1029.63 1029.69 1028.68 1027.62 1027.16 1026.54 1026.32 1026.10 1026.59 1027.09 1027.68 1028.71 1028.47 1027.07 1026.59 1026.58 1026.09 1026.35 1026.27 1026.09 1025.89 1025.55 1025.05
1025.80 1026.55 1026.34 1026.44 1026.26 1026.79 1027.72 1029.14 1028.88 1028.17 1027.92 1028.08 1028.29 1028.61 1028.82 1028.23 1028.21 1028.15 1027.55 1027.65 1028.05 1028.42 1028.89 1029.99 1029.75 1028.44 1027.68 1027.14 1026.49 1026.26 1026.62 1027.05 1027.78 1028.73 1028.43 1027.62 1027.21 1026.84 1026.71 1026.78 1026.75 1026.48 1026.39 1026.10 1025.68
1026.33 1026.81 1026.34 1026.14 1026.46 1028.08 1029.27 1029.20 1028.76 1027.96 1027.58 1028.04 1028.54 1028.64 1028.35 1028.16 1028.03 1028.44 1027.99 1027.48 1027.56 1028.22 1028.55 1029.67 1030.15 1029.28 1028.81 1028.06 1027.27 1026.72 1026.76 1027.05 1027.68 1028.29 1028.73 1028.82 1027.90 1027.68 1027.75 1027.71 1027.44 1027.27 1026.95 1026.57 1026.00
1026.13 1027.21 1026.83 1026.19 1027.24 1029.15 1029.98 1029.11 1028.12 1027.91 1027.67 1027.82 1028.27 1027.89 1028.05 1028.03 1027.81 1028.38 1028.15 1027.49 1027.22 1027.75 1028.56 1029.43 1030.23 1030.50 1029.79 1028.52 1027.69 1027.26 1027.30 1027.45 1028.19 1028.75 1028.83 1028.98 1028.22 1028.01 1027.95 1027.93 1027.83 1027.63 1027.34 1026.87 1026.47
1026.06 1026.78 1026.64 1026.55 1027.72 1029.32 1029.38 1028.81 1028.15 1027.65 1027.82 1027.83 1027.89 1027.90 1027.87 1028.15 1028.27 1028.15 1028.14 1027.50 1027.51 1027.51 1028.28 1029.20 1030.28 1030.89 1029.98 1029.29 1028.29 1027.91 1027.54 1027.61 1028.13 1028.70 1029.02 1029.28 1028.36 1027.85 1028.00 1027.88 1027.91 1027.98 1027.67 1027.19 1026.86
1025.55 1026.69 1027.07 1027.30 1027.66 1027.91 1028.80 1028.52 1027.91 1027.36 1027.35 1027.46 1027.60 1027.91 1028.32 1028.46 1028.35 1028.41 1028.25 1027.76 1027.55 1027.78 1028.09 1028.93 1030.30 1031.16 1031.11 1029.83 1029.01 1028.55 1027.86 1027.75 1028.10 1028.75 1028.88 1028.67 1028.27 1028.04 1027.84 1027.95 1028.12 1028.10 1027.96 1027.85 1027.49
1024.85 1025.61 1025.81 1027.03 1027.32 1027.51 1027.42 1027.34 1027.40 1026.99 1027.26 1027.36 1027.48 1027.68 1028.05 1028.80 1028.54 1028.52 1028.48 1028.21 1028.05 1028.08 1028.61 1029.43 1030.64 1031.33 1030.76 1029.93 1029.24 1028.27 1027.56 1027.38 1027.71 1028.02 1028.67 1028.30 1028.37 1027.66 1027.72 1027.95 1028.08 1028.11 1028.02 1027.94 1027.81
1024.15 1025.05 1025.69 1026.25 1026.53 1026.93 1027.02 1026.85 1026.00 1026.50 1026.69 1027.10 1027.33 1026.97 1027.87 1028.09 1027.83 1027.84 1028.59 1028.50 1028.53 1028.82 1029.20 1029.94 1030.78 1031.38 1030.86 1029.88 1029.06 1028.10 1027.19 1027.00 1027.20 1027.45 1027.62 1027.81 1027.80 1026.73 1027.22 1027.63 1027.85 1027.89 1027.88 1027.93 1027.93
1023.13 1023.65 1023.89 1025.32 1026.32 1026.55 1025.87 1025.21 1025.31 1025.25 1026.01 1025.83 1026.34 1027.15 1027.77 1027.58 1027.87 1027.77 1028.44 1028.72 1028.87 1029.36 1029.83 1030.49 1031.40 1032.14 1031.49 1030.07 1029.13 1027.89 1026.31 1026.33 1026.48 1026.54 1026.57 1027.05 1026.63 1026.65 1027.30 1027.35 1027.37 1027.38 1027.43 1027.56 1027.84
Wind_Speed
10 11 12 13 13 14 13 12 11 10 10 11 13 14 13 12 7 11 11 10 15 21 18 8 4 7 2 2 2 3 3 2 3 4 1 5 6 6 5 3 3 4 3 5 18
10 11 12 12 12 12 13 13 11 11 11 12 13 14 13 9 2 13 11 20 20 20 9 8 8 8 4 2 2 4 4 6 3 4 3 5 5 5 6 5 5 4 6 12 16
9 10 11 11 12 12 11 12 13 12 11 13 14 14 15 4 5 5 18 21 18 16 6 3 3 2 4 4 3 2 4 1 5 5 5 4 6 4 2 4 2 3 5 8 15
9 9 10 11 11 12 12 11 11 11 11 12 14 14 10 3 5 6 20 18 13 9 8 7 6 5 5 4 5 2 3 3 5 7 4 4 6 6 3 0 5 4 5 6 7
9 10 11 12 12 12 12 11 12 11 9 11 13 15 3 7 3 7 15 11 8 8 8 6 7 4 3 4 6 4 6 6 6 8 5 5 3 2 5 6 8 7 5 4 6
8 9 11 12 13 13 13 13 12 10 8 10 14 10 5 9 7 7 9 8 7 6 6 6 2 1 2 3 2 4 6 9 3 4 5 2 1 4 4 5 9 5 2 1 4
8 10 11 12 14 14 14 12 9 7 7 9 12 4 9 4 2 7 7 5 5 4 5 2 2 4 2 4 4 4 6 7 5 3 3 2 4 4 3 6 6 5 3 4 6
7 9 11 13 14 13 13 12 8 7 6 9 8 3 4 3 4 6 8 6 6 3 2 4 2 1 1 4 5 4 4 5 6 9 5 2 2 6 8 6 5 2 3 6 8
7 9 11 13 15 15 14 10 5 8 7 6 4 5 4 6 7 8 4 6 7 4 3 3 2 3 6 3 4 7 2 5 7 6 6 6 5 5 6 5 4 5 4 3 6
6 9 11 14 16 16 8 2 4 4 5 2 2 6 5 6 6 8 5 4 3 8 5 7 6 4 5 7 1 4 4 4 4 9 7 6 5 11 8 3 5 5 5 5 7
6 9 11 14 15 15 4 4 6 7 11 4 2 2 3 7 3 6 5 7 5 5 5 6 8 5 5 3 2 1 2 3 3 3 5 5 7 9 13 8 7 5 6 8 10
6 8 10 11 12 15 4 5 1 2 7 3 1 3 2 0 3 7 8 7 7 6 5 7 7 4 3 1 2 3 3 5 4 5 3 6 7 5 13 16 18 17 16 15 15
6 8 11 13 6 5 5 3 3 0 6 2 1 2 4 3 3 7 6 4 5 7 7 5 5 6 4 6 7 5 4 4 3 7 2 7 2 5 3 11 16 17 13 15 16
5 7 10 11 6 2 4 6 5 3 7 9 6 3 2 1 5 2 3 3 7 5 5 2 6 5 4 3 4 2 2 2 4 4 2 4 2 3 6 7 14 15 15 15 16
3 5 8 7 4 3 2 4 2 4 5 4 7 4 9 4 2 6 2 5 4 6 4 4 7 6 4 4 2 2 5 3 2 2 3 4 5 4 6 11 20 16 14 13 12
2 4 4 4 3 1 3 2 4 9 5 5 4 6 5 6 4 3 6 6 1 3 4 2 4 3 4 4 2 6 4 5 5 3 5 3 4 5 5 7 16 16 16 16 15
2 3 4 2 1 4 3 4 8 7 4 5 1 3 1 5 6 6 4 8 5 7 8 7 5 5 3 5 4 7 6 5 7 7 4 3 3 1 4 3 6 15 18 17 17
2 4 5 3 3 2 4 7 5 3 6 3 1 2 4 5 4 7 4 5 5 5 3 5 7 6 8 3 3 4 4 3 4 2 5 4 1 4 1 1 6 8 16 19 18
6 2 2 3 3 3 6 5 8 7 5 7 3 6 5 2 2 3 3 2 2 3 6 4 6 4 3 4 2 3 5 3 3 3 1 3 2 4 4 6 11 16 16 16 17
4 1 1 5 3 4 7 6 2 3 3 3 5 4 3 1 2 3 1 2 1 3 4 2 5 2 5 3 3 4 1 4 4 4 4 4 2 4 14 17 17 17 14 15 15
4 3 1 3 3 6 4 7 4 5 2 4 4 4 4 4 4 2 1 1 1 3 6 1 3 8 3 4 3 4 4 2 1 2 3 4 3 4 7 9 10 12 12 14 15
4 1 3 1 5 3 1 5 3 2 1 1 2 3 4 5 4 1 2 2 2 2 3 3 2 4 8 5 4 1 2 2 4 5 2 2 4 4 4 5 6 8 11 12 14
4 1 2 1 4 1 4 2 3 4 3 3 2 1 1 4 3 2 2 1 2 2 4 4 1 4 8 4 5 0 1 2 1 0 4 2 5 1 2 3 5 9 12 11 13
4 2 2 3 1 7 5 4 2 1 3 3 3 2 3 2 2 2 2 0 1 1 7 5 3 6 6 6 0 3 3 2 2 3 3 5 5 3 2 4 7 8 8 8 8
2 3 3 4 4 4 4 7 5 5 3 4 2 5 6 2 2 3 3 1 2 3 3 3 2 3 7 8 5 7 8 7 6 3 5 5 5 5 5 5 7 7 6 7 10
7 5 1 3 2 6 5 8 10 5 8 5 5 7 7 5 7 8 5 3 3 2 2 1 3 3 5 4 6 9 8 8 5 3 8 4 7 7 3 5 5 6 5 6 7
2 2 1 5 3 5 6 7 10 9 5 3 8 6 6 7 5 3 3 4 3 6 4 2 2 4 7 2 5 5 7 11 4 6 5 8 8 5 5 8 6 5 4 4 5
Wind_Direction
21 21 22 23 17 10 16 15 9 360 353 346 356 359 347 344 24 40 37 335 341 336 333 312 12 1 82 42 22 105 63 230 267 174 198 335 10 329 291 126 47 20 137 142 128
18 21 25 20 16 12 6 6 5 4 353 359 357 345 333 315 80 53 346 341 337 343 345 358 349 353 18 15 32 116 142 222 248 357 26 333 12 321 13 25 22 38 27 122 134
20 20 20 16 6 359 359 357 359 352 355 357 352 335 328 261 75 342 340 342 343 344 317 273 289 341 46 344 7 151 195 234 2 355 335 304 347 332 16 25 18 301 164 143 150
20 15 13 6 1 354 354 355 347 337 354 354 344 336 324 328 62 284 335 346 351 349 12 7 15 28 47 9 339 312 41 23 340 331 2 356 332 342 19 222 304 251 176 129 148
15 8 4 357 354 352 351 350 343 334 349 352 343 345 18 44 59 292 328 336 346 2 23 21 35 11 49 329 342 13 333 322 322 299 319 323 359 320 332 7 35 81 98 147 153
9 6 356 350 347 348 345 345 340 340 352 354 356 356 71 73 261 306 325 338 359 3 357 35 39 314 305 323 52 300 289 293 292 272 294 308 281 28 27 10 18 87 102 226 209
1 1 351 346 342 345 339 343 341 354 357 5 5 16 58 130 292 318 328 317 322 330 343 345 348 52 334 334 359 288 342 333 9 324 248 171 292 187 321 2 16 357 330 273 255
355 355 347 343 338 335 332 327 329 340 357 8 356 47 76 299 298 337 333 324 331 322 284 284 287 237 47 305 12 3 50 28 357 23 337 30 323 298 31 13 323 303 275 284 282
349 348 344 341 335 332 322 304 322 326 339 356 55 79 6 329 359 321 341 310 310 314 331 306 25 68 10 26 21 14 37 17 337 51 353 50 276 297 360 12 339 334 343 330 292
344 344 346 345 336 335 349 343 352 41 359 355 62 63 24 309 304 313 307 332 327 335 3 34 43 56 16 40 84 333 12 351 334 342 357 353 302 303 315 302 269 290 319 336 326
340 344 349 350 342 353 12 15 16 359 43 60 301 103 301 296 287 318 340 344 1 47 32 2 59 20 334 19 79 350 19 317 269 342 342 339 314 321 341 7 342 341 2 7 355
335 344 346 347 343 5 54 61 51 199 85 9 352 345 259 337 341 339 15 41 15 32 3 21 40 321 310 308 35 30 8 347 296 333 355 352 315 354 45 44 48 45 33 19 12
333 344 343 340 350 40 62 30 333 266 89 358 347 329 313 12 11 323 30 1 13 32 11 72 319 316 338 36 18 43 61 349 292 314 6 347 59 28 49 41 38 35 25 23 14
323 347 348 340 47 350 48 338 354 359 75 312 348 1 335 289 50 353 39 86 23 28 7 345 317 355 354 61 11 28 269 273 308 21 336 25 209 18 350 16 30 23 16 4 2
303 340 1 39 161 71 238 331 20 52 32 306 316 299 314 61 278 1 17 38 46 342 58 284 343 343 359 334 329 298 317 297 251 206 51 4 71 278 10 353 355 358 2 357 356
277 350 15 27 32 30 332 42 57 44 258 334 318 357 11 354 5 347 31 33 97 29 9 302 288 302 292 308 53 295 19 42 35 50 42 291 106 336 10 347 340 340 353 351 349
245 26 71 92 105 337 350 46 38 117 327 293 358 15 10 341 353 29 37 31 40 38 7 343 325 315 331 329 18 2 45 359 8 14 205 36 49 329 348 1 340 333 341 347 346
144 33 21 61 22 33 42 42 87 234 222 263 14 70 69 350 4 1 56 28 24 62 63 51 338 4 332 18 340 10 13 79 173 344 288 325 276 173 28 127 352 352 346 343 342
111 346 18 351 27 75 72 39 211 201 171 157 61 74 336 0 16 47 68 4 191 135 115 24 287 321 351 313 38 331 46 330 106 33 17 274 78 306 10 11 360 359 356 347 342
102 55 313 328 29 63 79 243 207 210 128 80 139 147 169 299 49 11 38 207 322 90 133 225 304 219 295 320 335 94 261 22 3 35 327 310 333 313 348 345 347 356 353 340 341
61 38 279 8 65 45 161 218 222 240 129 120 189 135 176 163 143 271 229 226 69 77 102 98 115 291 27 13 2 6 21 359 305 142 158 305 281 358 341 336 343 346 339 343 344
118 20 318 45 66 73 170 199 198 155 138 88 124 133 157 165 143 223 236 199 98 112 78 86 125 271 243 267 291 15 154 95 103 304 268 185 264 0 347 343 330 336 335 342 347
128 144 324 69 137 256 295 266 212 135 210 176 177 190 188 150 96 196 246 159 45 139 156 152 352 344 341 351 352 155 187 129 133 270 235 152 268 154 1 352 339 336 338 335 341
118 134 354 39 114 134 155 220 211 222 178 174 145 124 88 35 46 164 245 314 329 135 108 104 156 185 205 220 173 288 200 199 214 121 268 235 282 275 300 314 329 322 322 317 327
109 227 212 188 235 176 153 156 150 179 227 190 200 210 173 148 50 208 223 242 53 123 83 95 207 186 256 265 259 261 263 243 206 201 202 253 209 242 223 252 282 295 306 331 338
140 156 207 114 119 128 194 218 177 176 159 219 214 190 190 177 188 187 169 191 187 61 88 58 281 42 290 254 264 279 263 240 219 241 250 238 260 215 194 253 271 279 292 296 317
159 72 112 135 156 145 215 198 200 149 223 187 191 135 205 229 189 108 121 104 141 156 170 147 103 49 270 308 319 335 220 196 201 227 214 215 231 139 214 251 260 263 273 285 328